Regional Weather Roundup
Issued by NWS Grand Forks, ND

Home | Current Version | Previous Version | Graphics & Text | Print | Product List | Glossary On
Versions: 1 2 3 4 5 6 7 8 9 10 11 12 13 14 15 16 17 18 19 20 21 22 23 24 25 26 27 28 29 30 31 32 33 34 35 36 37 38 39 40 41 42 43 44 45 46 47 48 49 50
000
ASUS43 KFGF 220131
RWRFGF
PRAIRIE TO PINES  WEATHER ROUNDUP
NATIONAL WEATHER SERVICE EASTERN NORTH DAKOTA/GRAND FORKS ND
800 PM CDT FRI JUL 21 2017

 **SATELLITE DATA USED TO AUGMENT SKY COVER AT AUTOMATED STATIONS**
 *****  WEATHER ACROSS EASTERN NORTH DAKOTA  *****

CITY           SKY/WX    TMP DP  RH WIND       PRES   REMARKS
GRAND FORKS    PTSUNNY   82  72  71 S3        29.74S
GRAND FRKS AFB FAIR      82  70  65 NE5       29.74F
DEVILS LAKE    FAIR      80  69  69 N6        29.78F
FARGO          PTSUNNY   78  59  51 E14       29.75R
WAHPETON ARPT  FAIR      72  68  88 E6        29.78S
$$

 ***** WEATHER ACROSS CENTRAL AND WESTERN NORTH DAKOTA  *****

CITY           SKY/WX    TMP DP  RH WIND       PRES   REMARKS
BISMARCK       FAIR      88  69  53 SE7       29.76F HX  92
MINOT          FAIR      84  66  54 NE7       29.73F
JAMESTOWN      FAIR      79  63  57 SE12      29.75F
MINOT AFB      FAIR      84  65  53 SE7       29.71F
GARRISON         N/A     83  62  49 S18       29.76F
WILLISTON      FAIR      88  44  21 NW22G28   29.82R
DICKINSON      FAIR      88  37  16 NW15      29.83R
HETTINGER      FAIR      88  43  20 NW15      29.86S
$$

 *****  OTHER AIRPORT OBSERVATIONS IN OUR AREA  *****

CITY           SKY/WX    TMP DP  RH WIND       PRES   REMARKS
WALHALLA       NOT AVBL
GRAFTON AIRPOR FAIR      77  70  78 NE8       29.77S
VALLEY CITY AR MOCLDY    73  66  78 VRB5G20   29.77F
CANDO          NOT AVBL
CAVALIER APRT  FAIR      73  66  78 E7        29.76F
GWINNER        MOCLDY    79  66  65 NE9       29.78S
SHEYENNE NWR     N/A     81  61  50 E7        29.95S
ROLLA            N/A     73  73 100 E7        29.79S
 ***** THE ABOVE OBSERVATIONS ARE NON NWS ARE NOT QUALITY
       CONTROLLED AND MAY MIS-REPORT RAIN FOR SNOW...
$$

  *****  WEATHER ACROSS NORTHERN MINNESOTA  *****

CITY           SKY/WX    TMP DP  RH WIND       PRES   REMARKS
FLAG ISLAND    FAIR      72  55  56 E5        29.80F
WARROAD        FAIR      70  64  83 NE10      29.81F
ROSEAU         FAIR      70  64  83 E7        29.80F
HALLOCK        CLOUDY    73  64  73 E8        29.78R
THF RVR FALLS  FAIR      71  67  87 SE8       29.80R
BAUDETTE       FAIR      72  62  71 E9        29.80F
WASKISH        NOT AVBL
CROOKSTON      FAIR      75  72  88 SE8       29.76S
STEPHEN NDAWN    N/A     75  66  73 E8          N/A
GREENBUSH NDAW   N/A     72  63  73 E7          N/A
$$
  *****  WEATHER ACROSS CENTRAL AND WEST MINNESOTA  *****

CITY           SKY/WX    TMP DP  RH WIND       PRES   REMARKS
FOSSTON        FAIR      66  64  94 SE3       29.81R
BEMIDJI        FAIR      66  63  90 S5        29.80F
PARK RAPIDS    FAIR      68  66  93 NE7       29.83R
ELBOW LAKE     FAIR      80  74  84 E6        29.77F
WADENA         TSTM      64  64 100 SW9G22    29.80F
DETROIT LAKES  FAIR      72  68  88 NE10      29.82R
MOORHEAD       FAIR      79  63  57 NE9       29.80R
FERGUS FALLS   TSTM      70  70 100 E12G18    29.73F
MORRIS MN      FAIR      81  73  78 SE6       29.77S
STAPLES        TSTM      66  64  94 S7        29.84F
$$
  *****  WEATHER ELSEWHERE ACROSS MINNESOTA  *****

CITY           SKY/WX    TMP DP  RH WIND       PRES   REMARKS
DULUTH         TSTM      63  62  97 NE13G20   29.89R FOG
INTRNTL FALLS  FAIR      69  62  78 SE5       29.82F
ELY            LGT RAIN  66  57  72 S14       29.80F
CLOQUET        TSTM      64  61  88 NE10G20   29.87F
WHEATON        FAIR      79  73  83 W5        29.79R
BRAINERD       TSTM      65  65 100 SE9       29.86F FOG
HIBBING        FAIR      63  61  93 SE15      29.78F
ALEXANDRIA     MOCLDY    80  73  79 CALM      29.83R
SAINT CLOUD    CLOUDY    78  72  81 S5        29.81S
MINNEAPOLIS    MOCLDY    80  67  64 SE7       29.81R
$$

  *****  WEATHER ACROSS SOUTH DAKOTA  *****

CITY           SKY/WX    TMP DP  RH WIND       PRES   REMARKS
SIOUX FALLS    FAIR      83  75  77 SE7       29.76F HX  90
BROOKINGS      FAIR      81  72  74 S7        29.78F
WATERTOWN      FAIR      83  73  72 S8        29.77F
HURON          FAIR      86  72  62 S9        29.72F HX  92
SISSETON         N/A     75  69  81 E20G32    29.76R
ABERDEEN       FAIR      86  75  69 NE3       29.73F HX  95
MITCHELL       FAIR      85  74  69 SE8       29.74F HX  92
PIERRE         FAIR      96  63  33 S5        29.71F HX  97
MOBRIDGE       FAIR      91  74  57 NW6       29.72F HX 100
RAPID CITY     FAIR      90  45  21 N15       29.90S
$$

  *****  SOME WEATHER IN NEARBY STATES *****

CITY           SKY/WX    TMP DP  RH WIND       PRES   REMARKS
GLASGOW MT     FAIR      86  27  11 NW16      29.86F
GREAT FALLS MT FAIR      84  20   9 W20       29.98S
CHEYENNE WY    PTSUNNY   75  46  35 W9        30.18S
SCOTTSBLUFF NE FAIR      90  56  31 E5        29.96S
OMAHA NE       FAIR      98  75  47 S12       29.70F HX 110
DES MOINES IA  FAIR      93  75  55 S9        29.73F HX 104
DAVENPORT IA   FAIR      75  69  81 S8        29.81F
CHICAGO IL     CLOUDY    79  72  79 E9        29.87F
EAU CLAIRE WI  MOCLDY    74  67  78 SE7       29.86R
LA CROSSE WI   FAIR      74  69  85 SE6       29.83S
$$

  *****  SOME NATIONAL WEATHER *****

CITY           SKY/WX    TMP DP  RH WIND       PRES   REMARKS
LA GUARDIA NY  MOCLDY    89  68  49 SW10      29.84S HX  93
RALEIGH NC     MOCLDY    85  70  60 W7        29.97R
ATLANTA GA     FAIR      88  71  57 NW7       30.02R HX  94
NEW ORLEANS LA LGT RAIN  83  77  82 NW6       29.99R HX  92
OKLAHOMA CITY  FAIR      95  62  33 S12       29.88S HX  96
ALBUQUERQUE NM FAIR      87  50  27 S16       30.07S
SALT LAKE CITY FAIR      96  45  17 N12       29.97F HX  92
LOS ANGELES CA FAIR      73  66  78 W14       29.88F
BOISE ID       FAIR      92  35  13 NW15      29.97F
SEATTLE WA     PTSUNNY   76  50  40 W8        30.12F
$$

*** WEATHER ACROSS MANITOBA...SASKATCHEWAN AND ONTARIO ***
                ***ONTARIO***

CITY           SKY/WX    TMP DP  RH WIND       PRES   REMARKS
GERALDTON      MOCLDY    70  48  46 NE8       29.92S
THUNDER BAY    CLOUDY    68  61  77 VRB2      29.87F
SIOUX LOOKOUT  MOCLDY    70  52  52 E5        29.87S
TORONTO        PTCLDY    77  59  53 N7        29.92S
BIG TROUT LK   CLEAR     66  46  48 W5        29.93F
PICKLE LAKE    MOCLDY    70  41  35 NE9       29.91F
DRYDEN         CLOUDY    64  61  88 E5        29.86F
KENORA         PTCLDY    68  59  73 NE7       29.85F
$$
                *** MANITOBA***

CITY           SKY/WX    TMP DP  RH WIND       PRES   REMARKS
BRANDON        CLOUDY    73  66  78 E15       29.76F
DAUPHIN        SUNNY     70  61  73 E8        29.77F
ISLAND LAKE    MOSUNNY   68  45  42 SE5       29.93F
PILOT MOUND      N/A     72  64  78 E9          N/A
THE PAS        CLOUDY    68  41  37 E6        29.86F
THOMPSON       MOSUNNY   73  41  31 VRB2      29.91S
WINNIPEG       MOSUNNY   72  61  68 SE8       29.80S
LYNN LAKE      SUNNY     72  41  33 S7        29.91S
CHURCHILL      MOSUNNY   64  43  45 E2        29.93R
GILLAM         MOSUNNY   72  46  40 NE6       29.91S
$$
                ***SASKATCHEWAN***

CITY           SKY/WX    TMP DP  RH WIND       PRES   REMARKS
ESTEVAN        PTSUNNY   79  50  36 W23       29.79R
KINDERSLEY     MOSUNNY   72  48  43 NW7       29.87R
LLOYDMINSTER   PTSUNNY   66  55  68 NW6       29.86S
PRINCE ALBERT  LGT RAIN  61  59  94 E3        29.87S
REGINA         MOSUNNY   77  55  47 NW24      29.81R
YORKTON        TSTM      66  61  82 VRB18     29.74R
N. BATTLEFORD  PTSUNNY   64  57  77 E3        29.88R
LA RONGE       LGT RAIN  61  54  77 CALM      29.89F
SASKATOON      CLOUDY    63  59  88 NE7       29.88S
SWIFT CURRENT  SUNNY     72  46  40 NW7       29.90S
$$
NOTE: THESE ARE AUTOMATED STATIONS WITH LIMITED QUALITY CONTROL
      "FAIR" INDICATES FEW OR NO CLOUDS BELOW 12,000 FEET WITH NO
      SIGNIFICANT WEATHER AND/OR OBSTRUCTIONS TO VISIBILITY.
      SKY/WX - SKY CONDITION AND SIGNIFICANT WEATHER.
      TMP - AIR TEMPERATURE.    DP   - DEWPOINT TEMPERATURE.
      RH  - RELATIVE HUMIDITY.  PRES - PRESSURE.
      HX  - HEAT INDEX.         WCI  - WIND CHILL INDEX.
$




USA.gov is the U.S. government's official web portal to all federal, state and local government web resources and services.